Alexandria, Egypt

9:03 PM EET on December 17, 2017 (GMT +0200)
Alexandria

Weather History for HEAX - September, 2013

Change the Weather History Date:

Tuesday, September 10, 2013

  Actual Average Record
Temperature  
Mean Temperature 76 °F -  
Max Temperature 87 °F 81 °F 93 °F (2003)
Min Temperature 66 °F 68 °F 66 °F (2013)
Cooling Degree Days 12    
Growing Degree Days 26 (Base 50)    
Moisture  
Dew Point 69 °F    
Average Humidity 70    
Maximum Humidity 88    
Minimum Humidity 51    
Precipitation  
Precipitation 0.00 in 0.01 in - ()
Sea Level Pressure  
Sea Level Pressure 29.95 in    
Wind  
Wind Speed 8 mph ()    
Max Wind Speed 69 mph    
Max Gust Speed -    
Visibility 6.1 miles    
Events      
Averages and records for this station are not official NWS values.
T = Trace of Precipitation, MM = Missing Value Source: Averaged Metar Reports

Daily Weather History Graph

Daily Weather History Graph

Search for Another Location

Airport or City:

Trip Planner

Search our weather history database for the weather conditions in past years. The results will help you decide how hot, cold, wet, or windy it might be!

Date:

Astronomy

Sep. 10, 2013 Rise Set
Actual Time 5:41 AM EET 6:12 PM EET
Civil Twilight 5:17 AM EET 6:36 PM EET
Nautical Twilight 4:48 AM EET 7:05 PM EET
Astronomical Twilight 4:19 AM EET 7:34 PM EET
Moon 10:23 AM EET (9/10) 9:22 PM EET (9/10)
Length of Visible Light 13h 19m
Length of Day
12h 30m
Waxing Crescent, 25% of the Moon is Illuminated
Sep 10
Waxing Crescent
Sep 12
First Quarter
Sep 19
Full
Sep 27
Last Quarter
Oct 5
New

Hourly Weather History & Observations

Time (EET) Temp. Heat Index Dew Point Humidity Pressure Visibility Wind Dir Wind Speed Gust Speed Precip Events Conditions
12:00 AM 75.2 °F - 64.4 °F 69% 29.95 in 6.2 mi North 6.9 mph - N/A   Scattered Clouds
1:00 AM 75.2 °F - 66.2 °F 73% 29.92 in 6.2 mi North 5.8 mph - N/A   Scattered Clouds
2:00 AM 76 °F - 66 °F 63% 29.94 in 6 mi North 5.8 mph - -   Scattered Clouds
2:00 AM 75.2 °F - 66.2 °F 73% 29.92 in 6.2 mi North 5.8 mph - N/A   Partly Cloudy
3:00 AM 75.2 °F - 66.2 °F 73% 29.92 in 6.2 mi North 4.6 mph - N/A   Partly Cloudy
4:00 AM 73.4 °F - 64.4 °F 73% 29.92 in 6.2 mi North 4.6 mph - N/A   Partly Cloudy
5:00 AM 68.0 °F - 64.4 °F 88% 29.95 in - ENE 4.6 mph - N/A   Clear
6:00 AM 66.2 °F - 62.6 °F 88% 29.95 in - East 3.5 mph - N/A   Clear
7:00 AM 71.6 °F - 66.2 °F 83% 29.95 in - East 4.6 mph - N/A   Clear
8:00 AM 79 °F - 69 °F 65% 29.98 in 6 mi ESE 4.6 mph - -  
8:00 AM 78.8 °F - 69.8 °F 74% 29.98 in - ESE 4.6 mph - N/A   Clear
9:00 AM 82.4 °F 86.3 °F 69.8 °F 66% 29.98 in 6.2 mi NNE 8.1 mph - N/A   Scattered Clouds
10:00 AM 82.4 °F 86.3 °F 69.8 °F 66% 29.98 in 6.2 mi North 8.1 mph - N/A   Partly Cloudy
11:00 AM 84.2 °F 89.6 °F 71.6 °F 66% 29.98 in 6.2 mi North 6.9 mph - N/A   Partly Cloudy
12:00 PM 86.0 °F 91.8 °F 71.6 °F 62% 29.98 in 6.2 mi North 69.0 mph - N/A   Partly Cloudy
1:00 PM 86.0 °F 91.8 °F 71.6 °F 62% 29.98 in 6.2 mi North 11.5 mph - N/A   Scattered Clouds
2:00 PM 87 °F - 71 °F 51% 29.96 in 6 mi North 11.5 mph - -  
2:00 PM 87.8 °F 93.8 °F 71.6 °F 58% 29.95 in - North 11.5 mph - N/A   Clear
3:00 PM 86.0 °F 91.8 °F 71.6 °F 62% 29.95 in - North 9.2 mph - N/A   Clear
4:00 PM 86.0 °F 91.8 °F 71.6 °F 62% 29.95 in - North 9.2 mph - N/A   Clear
5:00 PM 84.2 °F 88.4 °F 69.8 °F 62% 29.95 in - North 11.5 mph - N/A   Clear
6:00 PM 80.6 °F 84.6 °F 71.6 °F 74% 29.95 in - North 10.4 mph - N/A   Clear
7:00 PM 78.8 °F - 71.6 °F 78% 29.95 in - North 10.4 mph - N/A   Clear
8:00 PM 78 °F - 70 °F 71% 29.96 in 6 mi North 9.2 mph - -  
8:00 PM 78.8 °F - 69.8 °F 74% 29.95 in - North 9.2 mph - N/A   Clear
9:00 PM 77.0 °F - 69.8 °F 78% 29.95 in - North 5.8 mph - N/A   Clear
10:00 PM 77.0 °F - 69.8 °F 78% 29.95 in - North 6.9 mph - N/A   Clear
11:00 PM 77.0 °F - 69.8 °F 78% 29.95 in - North 6.9 mph - N/A   Clear